Погода в Мигне

Россия / Красноярский край     53°08′05″N   92°13′19″E
темп.,
°C
ветер,
м/с
пор.,
м/с
влажн.,
%
обл.,
%
осадки,
мм/ч
давл.,
гПа
погр.,
м
28 июня, вт
вт2801:00+20вюв1176100 0.0 99611
04:00+17юз2383100 0.1 99830
07:00+19зюз1286100 0.8 100291
10:00+17з61295100 1.7 1006859
13:00+18зюз3767100 4.9 1008857
16:00+22зюз344199 0.0 10081283
19:00+22юв33460 0.0 1007577
22:00+15ююв1168100 0.0 100812
29 июня, ср
ср2901:00+14ююв1170100 0.0 100911
04:00+11в118582 0.0 100910
07:00+15всв11681 0.0 1009168
10:00+22в12470 0.0 1007702
13:00+26всв22330 0.0 10051331
16:00+28св22260 0.0 10021497
19:00+26св35390 0.0 1001257
22:00+18вюв33585 0.0 100134
30 июня, чт
чт3001:00+16вюв226274 0.0 99942
04:00+16з2258100 0.0 99918
07:00+19вюв1255100 0.0 100088
10:00+24всв3341100 0.0 999405
13:00+30всв33305 0.1 998836
16:00+20юв61365100 0.6 999413
19:00+18ююз4494100 4.3 1005273
22:00+16в2497100 1.1 100393
1 июля, пт
пт101:00+14ююз1195100 1.1 100311
04:00+14ююз0195100 0.0 100411
07:00+17з129344 0.0 1004231
10:00+21зсз227196 0.1 1003885
13:00+24зсз325576 0.1 10021361
16:00+23зсз4573100 1.3 1001957
19:00+16ю3695100 9.1 1004204
22:00+14ююв229275 0.0 100515
2 июля, сб
сб201:00+13ю1188100 0.0 100611
04:00+12юз3591100 0.0 1006101
07:00+14юз2587100 0.0 1007169
10:00+20з455167 0.0 10071148
13:00+23з363980 0.0 10062407
16:00+24юз253356 0.0 10042441
19:00+21ссв3550100 0.0 1004117
22:00+16ююз1267100 0.0 100517